Zurück zum Katalog

TIANPING-2B

AktivWissenschaftSSO
NORAD 52156·PAYLOAD·🇨🇳 China
Dieser Satellitenname wurde noch nicht durch offizielle Quellen bestätigt.

Gestartet Mar 30, 2022 von Jiuquan Satellite Launch Center

Loading…

Nächste Überflüge (nächste 24 Stunden)

TLE

AktuellSource: Space-Track

Epoche: Sep 14, 2026, 14:02 UTC

1 52156U 22032D   26257.58479441  .00002932  00000-0  17497-3 0  9999
2 52156  97.5744 309.2053 0005717 194.0828 166.0244 15.11905635244358

Verfolge TIANPING-2B in Echtzeit mit AllMySat

Download on the App Store